Back to catalog

COSMOS 1275 DEB

AlivePO
NORAD 17627·DEBRIS·🇷🇺 Russia

Launched Jun 4, 1981 from Plesetsk Cosmodrome

Loading…

Next Passes (next 24 hours)

TLE

FreshSource: Space-Track

Epoch: Sep 14, 2026, 12:48 UTC

1 17627U 81053KW  26257.53380614  .00001000  00000-0  65061-3 0  9994
2 17627  82.9208 285.9364 0048246 164.1951 196.0739 14.01030389 98137

Track COSMOS 1275 DEB in real time with AllMySat

Download on the App Store